Etusivu
METAR-TAF:

METAR-TAF

Lentoasemat :

Price County Airport

Phillips, Wisconsin, Yhdysvallat

Leveyspiiri: 45-42N, Pituuspiiri: 090-24W, korkeus merenpinnasta: 449 m

Tämänhetkinen sää

Tämä raportti tehtiin 15 minuuttia sitten, kello 13.15 UTC
Tuuli 4 kn idästä
Lämpötila 8°C
Kosteus 76%
Ilmanpaine 1022 hPa
Näkyvyys: 16.1 km
selkeää

METAR: KPBH 211315Z AUTO 08004KT 10SM CLR 08/04 A3017 RMK AO2 T00790042

Aika: 08:30 (13:30 UTC)


TAF: puuttuu

Säähavainnot ja -ennusteet yli 4000 lentoasemalta (METAR- ja TAF-raportit).

Käytössä olevat sääasemat on merkitty karttaan keltaisilla ja punaisilla pisteillä.

Aseta hiiri pisteen päälle nähdäksesi sääaseman nimen.

Klikkaa sitten nähdäksesi säähavainnot ja -ennusteet.

Kartan vaihtaminen: klikkaa mustalla rastilla varustettuja vihreitä pisteitä, niin voit zoomata sisään; viivalla varustettua vihreää pistettä, niin voit zoomata ulos tai vihreitä nuolia, niin pääset viereisille kartoille.


METAR-TAF: